Time,TemperatureF,DewpointF,PressureIn,WindDirection,WindDirectionDegrees,WindSpeedMPH,WindSpeedGustMPH,Humidity,HourlyPrecipIn,Conditions,Clouds,dailyrainin,SoftwareType,DateUTC
2013-11-29 00:00:00,45.0,33.2,30.56,North,32767,0.0,6.0,63,0.00,,,0.01,Wunderground v.1.15,2013-11-29 00:00:00,
2013-11-29 00:05:00,45.0,32.8,30.57,North,32767,0.0,6.0,62,0.00,,,0.00,Wunderground v.1.15,2013-11-29 00:05:00,
2013-11-29 00:15:00,44.9,32.7,30.57,North,32767,0.0,0.0,62,0.00,,,0.00,Wunderground v.1.15,2013-11-29 00:15:00,
2013-11-29 00:25:00,44.9,32.3,30.57,North,32767,0.0,0.0,61,0.00,,,0.00,Wunderground v.1.15,2013-11-29 00:25:00,
2013-11-29 00:30:00,44.9,31.8,30.57,North,32767,0.0,0.0,60,0.00,,,0.00,Wunderground v.1.15,2013-11-29 00:30:00,
2013-11-29 00:35:00,44.9,31.8,30.56,North,32767,0.0,0.0,60,0.00,,,0.00,Wunderground v.1.15,2013-11-29 00:35:00,
2013-11-29 00:40:00,44.8,31.8,30.56,North,32767,0.0,0.0,60,0.00,,,0.00,Wunderground v.1.15,2013-11-29 00:40:00,
2013-11-29 00:50:00,44.8,31.3,30.56,North,32767,0.0,0.0,59,0.00,,,0.00,Wunderground v.1.15,2013-11-29 00:50:00,
2013-11-29 00:55:00,44.8,31.3,30.56,North,32767,0.0,0.0,59,0.00,,,0.00,Wunderground v.1.15,2013-11-29 00:55:00,
2013-11-29 01:05:00,44.8,31.3,30.55,North,32767,0.0,0.0,59,0.00,,,0.00,Wunderground v.1.15,2013-11-29 01:05:00,
2013-11-29 01:15:00,44.8,30.9,30.55,North,32767,0.0,0.0,58,0.00,,,0.00,Wunderground v.1.15,2013-11-29 01:15:00,
2013-11-29 01:25:00,44.8,30.9,30.54,North,32767,0.0,0.0,58,0.00,,,0.00,Wunderground v.1.15,2013-11-29 01:25:00,
2013-11-29 01:30:00,44.8,30.5,30.54,North,32767,0.0,0.0,57,0.00,,,0.00,Wunderground v.1.15,2013-11-29 01:30:00,
2013-11-29 01:35:00,44.8,30.0,30.54,North,32767,0.0,0.0,56,0.00,,,0.00,Wunderground v.1.15,2013-11-29 01:35:00,
2013-11-29 01:45:00,44.9,29.7,30.54,North,32767,0.0,0.0,55,0.00,,,0.00,Wunderground v.1.15,2013-11-29 01:45:00,
2013-11-29 01:50:00,45.0,29.3,30.54,North,32767,0.0,0.0,54,0.00,,,0.00,Wunderground v.1.15,2013-11-29 01:50:00,
2013-11-29 01:55:00,45.1,29.0,30.54,North,32767,0.0,0.0,53,0.00,,,0.00,Wunderground v.1.15,2013-11-29 01:55:00,
2013-11-29 02:05:00,45.1,29.0,30.53,North,32767,0.0,0.0,53,0.00,,,0.00,Wunderground v.1.15,2013-11-29 02:05:00,
2013-11-29 02:15:00,45.1,28.5,30.53,North,32767,0.0,0.0,52,0.00,,,0.00,Wunderground v.1.15,2013-11-29 02:15:00,
2013-11-29 02:20:00,45.2,28.1,30.53,North,32767,0.0,0.0,51,0.00,,,0.00,Wunderground v.1.15,2013-11-29 02:20:00,
2013-11-29 02:30:00,45.2,27.6,30.53,North,32767,0.0,0.0,50,0.00,,,0.00,Wunderground v.1.15,2013-11-29 02:30:00,
2013-11-29 02:35:00,45.2,27.6,30.53,North,32767,0.0,0.0,50,0.00,,,0.00,Wunderground v.1.15,2013-11-29 02:35:00,
2013-11-29 02:40:00,45.3,27.2,30.53,North,32767,0.0,0.0,49,0.00,,,0.00,Wunderground v.1.15,2013-11-29 02:40:00,
2013-11-29 02:50:00,45.3,26.7,30.53,North,32767,0.0,0.0,48,0.00,,,0.00,Wunderground v.1.15,2013-11-29 02:50:00,
2013-11-29 02:55:00,45.2,26.7,30.53,North,32767,0.0,0.0,48,0.00,,,0.00,Wunderground v.1.15,2013-11-29 02:55:00,
2013-11-29 03:00:00,45.2,26.7,30.53,North,32767,0.0,0.0,48,0.00,,,0.00,Wunderground v.1.15,2013-11-29 03:00:00,
2013-11-29 03:05:00,45.2,26.1,30.53,North,32767,0.0,0.0,47,0.00,,,0.00,Wunderground v.1.15,2013-11-29 03:05:00,
2013-11-29 03:15:00,45.1,26.1,30.53,North,32767,0.0,0.0,47,0.00,,,0.00,Wunderground v.1.15,2013-11-29 03:15:00,
2013-11-29 03:20:00,45.1,25.5,30.52,North,32767,0.0,0.0,46,0.00,,,0.00,Wunderground v.1.15,2013-11-29 03:20:00,
2013-11-29 03:30:00,45.1,25.0,30.52,North,32767,0.0,0.0,45,0.00,,,0.00,Wunderground v.1.15,2013-11-29 03:30:00,
2013-11-29 03:35:00,45.1,25.0,30.52,North,32767,0.0,0.0,45,0.00,,,0.00,Wunderground v.1.15,2013-11-29 03:35:00,
2013-11-29 03:40:00,45.1,25.0,30.52,North,32767,0.0,0.0,45,0.00,,,0.00,Wunderground v.1.15,2013-11-29 03:40:00,
2013-11-29 03:45:00,45.1,25.0,30.52,North,32767,0.0,0.0,45,0.00,,,0.00,Wunderground v.1.15,2013-11-29 03:45:00,
2013-11-29 03:55:00,44.7,25.2,30.51,North,32767,0.0,0.0,46,0.00,,,0.00,Wunderground v.1.15,2013-11-29 03:55:00,
2013-11-29 04:00:00,44.5,25.5,30.51,North,32767,0.0,0.0,47,0.00,,,0.00,Wunderground v.1.15,2013-11-29 04:00:00,
2013-11-29 04:05:00,44.3,25.3,30.50,North,32767,0.0,0.0,47,0.00,,,0.00,Wunderground v.1.15,2013-11-29 04:05:00,
2013-11-29 04:15:00,43.9,24.9,30.50,North,32767,0.0,0.0,47,0.00,,,0.00,Wunderground v.1.15,2013-11-29 04:15:00,
2013-11-29 04:20:00,43.8,24.3,30.49,North,32767,0.0,0.0,46,0.00,,,0.00,Wunderground v.1.15,2013-11-29 04:20:00,
2013-11-29 04:30:00,43.6,24.2,30.49,North,32767,0.0,0.0,46,0.00,,,0.00,Wunderground v.1.15,2013-11-29 04:30:00,
2013-11-29 04:35:00,43.5,24.1,30.49,North,32767,0.0,0.0,46,0.00,,,0.00,Wunderground v.1.15,2013-11-29 04:35:00,
2013-11-29 04:45:00,43.2,24.3,30.49,North,32767,0.0,0.0,47,0.00,,,0.00,Wunderground v.1.15,2013-11-29 04:45:00,
2013-11-29 04:50:00,43.0,24.1,30.49,North,32767,0.0,0.0,47,0.00,,,0.00,Wunderground v.1.15,2013-11-29 04:50:00,
2013-11-29 04:55:00,42.9,24.0,30.49,North,32767,0.0,0.0,47,0.00,,,0.00,Wunderground v.1.15,2013-11-29 04:55:00,
2013-11-29 05:00:00,42.7,24.4,30.49,North,32767,0.0,0.0,48,0.00,,,0.00,Wunderground v.1.15,2013-11-29 05:00:00,
2013-11-29 05:05:00,42.5,24.2,30.49,North,32767,0.0,0.0,48,0.00,,,0.00,Wunderground v.1.15,2013-11-29 05:05:00,
2013-11-29 05:15:00,42.2,23.9,30.49,North,32767,0.0,0.0,48,0.00,,,0.00,Wunderground v.1.15,2013-11-29 05:15:00,
2013-11-29 05:20:00,42.2,22.9,30.49,North,32767,0.0,0.0,46,0.00,,,0.00,Wunderground v.1.15,2013-11-29 05:20:00,
2013-11-29 05:25:00,42.2,22.4,30.49,North,32767,0.0,0.0,45,0.00,,,0.00,Wunderground v.1.15,2013-11-29 05:25:00,
2013-11-29 05:30:00,42.2,22.4,30.49,North,32767,0.0,0.0,45,0.00,,,0.00,Wunderground v.1.15,2013-11-29 05:30:00,
2013-11-29 05:35:00,42.1,21.7,30.49,North,32767,0.0,0.0,44,0.00,,,0.00,Wunderground v.1.15,2013-11-29 05:35:00,
2013-11-29 05:40:00,42.1,21.7,30.49,North,32767,0.0,0.0,44,0.00,,,0.00,Wunderground v.1.15,2013-11-29 05:40:00,
2013-11-29 05:45:00,42.2,21.3,30.49,North,32767,0.0,0.0,43,0.00,,,0.00,Wunderground v.1.15,2013-11-29 05:45:00,
2013-11-29 05:55:00,42.4,20.9,30.49,North,32767,0.0,0.0,42,0.00,,,0.00,Wunderground v.1.15,2013-11-29 05:55:00,
2013-11-29 06:00:00,42.5,20.4,30.49,North,32767,0.0,0.0,41,0.00,,,0.00,Wunderground v.1.15,2013-11-29 06:00:00,
2013-11-29 06:05:00,42.7,20.6,30.49,North,32767,0.0,0.0,41,0.00,,,0.00,Wunderground v.1.15,2013-11-29 06:05:00,
2013-11-29 06:15:00,42.9,20.2,30.49,North,32767,0.0,0.0,40,0.00,,,0.00,Wunderground v.1.15,2013-11-29 06:15:00,
2013-11-29 06:20:00,42.9,20.2,30.49,North,32767,0.0,0.0,40,0.00,,,0.00,Wunderground v.1.15,2013-11-29 06:20:00,
2013-11-29 06:25:00,43.0,20.3,30.49,North,32767,0.0,0.0,40,0.00,,,0.00,Wunderground v.1.15,2013-11-29 06:25:00,
2013-11-29 06:35:00,43.2,20.5,30.50,North,32767,0.0,0.0,40,0.00,,,0.00,Wunderground v.1.15,2013-11-29 06:35:00,
2013-11-29 06:40:00,43.2,20.5,30.50,North,32767,0.0,0.0,40,0.00,,,0.00,Wunderground v.1.15,2013-11-29 06:40:00,
2013-11-29 06:45:00,43.2,20.5,30.50,North,32767,0.0,0.0,40,0.00,,,0.00,Wunderground v.1.15,2013-11-29 06:45:00,
2013-11-29 06:55:00,43.2,21.1,30.49,North,32767,0.0,0.0,41,0.00,,,0.00,Wunderground v.1.15,2013-11-29 06:55:00,
2013-11-29 07:00:00,43.2,21.1,30.49,North,32767,0.0,0.0,41,0.00,,,0.00,Wunderground v.1.15,2013-11-29 07:00:00,
2013-11-29 07:05:00,43.2,21.1,30.49,North,32767,0.0,0.0,41,0.00,,,0.00,Wunderground v.1.15,2013-11-29 07:05:00,
2013-11-29 07:15:00,43.6,20.2,30.49,North,32767,0.0,0.0,39,0.00,,,0.00,Wunderground v.1.15,2013-11-29 07:15:00,
2013-11-29 07:20:00,43.9,19.9,30.48,North,32767,0.0,0.0,38,0.00,,,0.00,Wunderground v.1.15,2013-11-29 07:20:00,
2013-11-29 07:30:00,44.0,20.0,30.48,North,32767,0.0,0.0,38,0.00,,,0.00,Wunderground v.1.15,2013-11-29 07:30:00,
2013-11-29 07:35:00,44.1,20.1,30.47,North,32767,0.0,0.0,38,0.00,,,0.00,Wunderground v.1.15,2013-11-29 07:35:00,
2013-11-29 07:40:00,44.1,20.7,30.47,North,32767,0.0,0.0,39,0.00,,,0.00,Wunderground v.1.15,2013-11-29 07:40:00,
2013-11-29 07:50:00,44.1,20.7,30.47,North,32767,0.0,0.0,39,0.00,,,0.00,Wunderground v.1.15,2013-11-29 07:50:00,
2013-11-29 07:55:00,44.1,20.7,30.47,North,32767,0.0,0.0,39,0.00,,,0.00,Wunderground v.1.15,2013-11-29 07:55:00,
2013-11-29 08:00:00,44.2,20.2,30.47,North,32767,0.0,0.0,38,0.00,,,0.00,Wunderground v.1.15,2013-11-29 08:00:00,
2013-11-29 08:05:00,44.4,19.7,30.48,North,32767,0.0,0.0,37,0.00,,,0.00,Wunderground v.1.15,2013-11-29 08:05:00,
2013-11-29 08:15:00,44.9,18.9,30.48,North,32767,0.0,0.0,35,0.00,,,0.00,Wunderground v.1.15,2013-11-29 08:15:00,
2013-11-29 08:20:00,45.2,18.5,30.47,North,32767,0.0,0.0,34,0.00,,,0.00,Wunderground v.1.15,2013-11-29 08:20:00,
2013-11-29 08:30:00,45.6,18.8,30.47,North,32767,0.0,0.0,34,0.00,,,0.00,Wunderground v.1.15,2013-11-29 08:30:00,
2013-11-29 08:35:00,45.7,18.9,30.47,North,32767,0.0,0.0,34,0.00,,,0.00,Wunderground v.1.15,2013-11-29 08:35:00,
2013-11-29 08:45:00,46.0,18.5,30.47,North,32767,0.0,0.0,33,0.00,,,0.00,Wunderground v.1.15,2013-11-29 08:45:00,
2013-11-29 08:50:00,46.2,18.6,30.47,North,32767,0.0,0.0,33,0.00,,,0.00,Wunderground v.1.15,2013-11-29 08:50:00,
2013-11-29 08:55:00,46.4,18.8,30.47,North,32767,0.0,0.0,33,0.00,,,0.00,Wunderground v.1.15,2013-11-29 08:55:00,
2013-11-29 09:05:00,46.4,19.5,30.48,North,32767,0.0,0.0,34,0.00,,,0.00,Wunderground v.1.15,2013-11-29 09:05:00,
2013-11-29 09:15:00,46.6,19.7,30.48,North,32767,0.0,0.0,34,0.00,,,0.00,Wunderground v.1.15,2013-11-29 09:15:00,
2013-11-29 09:20:00,46.8,19.9,30.48,North,32767,0.0,0.0,34,0.00,,,0.00,Wunderground v.1.15,2013-11-29 09:20:00,
2013-11-29 09:25:00,46.9,19.3,30.48,North,32767,0.0,0.0,33,0.00,,,0.00,Wunderground v.1.15,2013-11-29 09:25:00,
2013-11-29 09:30:00,47.0,19.3,30.48,North,32767,0.0,0.0,33,0.00,,,0.00,Wunderground v.1.15,2013-11-29 09:30:00,
2013-11-29 09:40:00,47.2,19.5,30.47,North,32767,0.0,0.0,33,0.00,,,0.00,Wunderground v.1.15,2013-11-29 09:40:00,
2013-11-29 09:45:00,47.4,19.7,30.47,North,32767,0.0,0.0,33,0.00,,,0.00,Wunderground v.1.15,2013-11-29 09:45:00,
2013-11-29 09:50:00,47.6,19.9,30.46,North,32767,0.0,0.0,33,0.00,,,0.00,Wunderground v.1.15,2013-11-29 09:50:00,
2013-11-29 10:00:00,47.9,20.1,30.46,North,32767,0.0,0.0,33,0.00,,,0.00,Wunderground v.1.15,2013-11-29 10:00:00,
2013-11-29 10:05:00,48.1,20.3,30.46,North,32767,0.0,0.0,33,0.00,,,0.00,Wunderground v.1.15,2013-11-29 10:05:00,
2013-11-29 10:15:00,48.3,20.5,30.46,North,32767,0.0,0.0,33,0.00,,,0.00,Wunderground v.1.15,2013-11-29 10:15:00,
2013-11-29 10:20:00,48.4,20.6,30.46,North,32767,0.0,0.0,33,0.00,,,0.00,Wunderground v.1.15,2013-11-29 10:20:00,
2013-11-29 10:25:00,48.4,19.9,30.46,North,32767,0.0,0.0,32,0.00,,,0.00,Wunderground v.1.15,2013-11-29 10:25:00,
2013-11-29 10:30:00,48.5,19.9,30.46,North,32767,0.0,0.0,32,0.00,,,0.00,Wunderground v.1.15,2013-11-29 10:30:00,
2013-11-29 10:35:00,48.5,19.2,30.46,North,32767,0.0,0.0,31,0.00,,,0.00,Wunderground v.1.15,2013-11-29 10:35:00,
2013-11-29 10:45:00,48.8,17.9,30.46,North,32767,0.0,0.0,29,0.00,,,0.01,Wunderground v.1.15,2013-11-29 10:45:00,
2013-11-29 10:50:00,48.9,18.0,30.46,North,32767,0.0,0.0,29,0.00,,,0.01,Wunderground v.1.15,2013-11-29 10:50:00,
2013-11-29 11:00:00,49.0,16.4,30.46,North,32767,0.0,0.0,27,0.00,,,0.01,Wunderground v.1.15,2013-11-29 11:00:00,
2013-11-29 11:05:00,49.1,16.5,30.46,North,32767,0.0,0.0,27,0.00,,,0.01,Wunderground v.1.15,2013-11-29 11:05:00,
2013-11-29 11:15:00,48.8,16.2,30.46,North,32767,0.0,0.0,27,0.00,,,0.01,Wunderground v.1.15,2013-11-29 11:15:00,
2013-11-29 11:20:00,48.5,16.0,30.46,North,32767,0.0,0.0,27,0.00,,,0.01,Wunderground v.1.15,2013-11-29 11:20:00,
2013-11-29 11:25:00,48.3,16.7,30.46,North,32767,0.0,0.0,28,0.00,,,0.01,Wunderground v.1.15,2013-11-29 11:25:00,
2013-11-29 11:30:00,48.2,15.7,30.46,North,32767,0.0,0.0,27,0.00,,,0.01,Wunderground v.1.15,2013-11-29 11:30:00,
2013-11-29 11:40:00,48.0,16.4,30.46,North,32767,0.0,0.0,28,0.00,,,0.01,Wunderground v.1.15,2013-11-29 11:40:00,
2013-11-29 11:45:00,48.0,16.4,30.46,North,32767,0.0,0.0,28,0.00,,,0.01,Wunderground v.1.15,2013-11-29 11:45:00,
2013-11-29 11:50:00,48.0,16.4,30.46,North,32767,0.0,0.0,28,0.00,,,0.01,Wunderground v.1.15,2013-11-29 11:50:00,
2013-11-29 12:00:00,48.0,16.4,30.46,North,32767,0.0,0.0,28,0.00,,,0.01,Wunderground v.1.15,2013-11-29 12:00:00,
2013-11-29 12:05:00,47.9,17.1,30.46,North,32767,0.0,0.0,29,0.00,,,0.01,Wunderground v.1.15,2013-11-29 12:05:00,
2013-11-29 12:15:00,47.1,18.7,30.46,North,32767,0.0,0.0,32,0.00,,,0.01,Wunderground v.1.15,2013-11-29 12:15:00,
2013-11-29 12:20:00,47.1,18.7,30.46,North,32767,0.0,0.0,32,0.00,,,0.01,Wunderground v.1.15,2013-11-29 12:20:00,
2013-11-29 12:25:00,47.2,18.8,30.46,North,32767,0.0,0.0,32,0.00,,,0.01,Wunderground v.1.15,2013-11-29 12:25:00,
2013-11-29 12:35:00,47.2,19.5,30.45,North,32767,0.0,0.0,33,0.00,,,0.01,Wunderground v.1.15,2013-11-29 12:35:00,
2013-11-29 12:40:00,47.1,20.1,30.45,North,32767,0.0,0.0,34,0.00,,,0.01,Wunderground v.1.15,2013-11-29 12:40:00,
2013-11-29 12:45:00,47.0,21.4,30.45,North,32767,0.0,0.0,36,0.00,,,0.01,Wunderground v.1.15,2013-11-29 12:45:00,
2013-11-29 12:55:00,46.9,23.8,30.45,North,32767,0.0,0.0,40,0.00,,,0.01,Wunderground v.1.15,2013-11-29 12:55:00,
2013-11-29 13:00:00,46.8,26.0,30.45,North,32767,0.0,0.0,44,0.00,,,0.01,Wunderground v.1.15,2013-11-29 13:00:00,
2013-11-29 13:05:00,46.8,28.1,30.44,North,32767,0.0,0.0,48,0.00,,,0.01,Wunderground v.1.15,2013-11-29 13:05:00,
2013-11-29 13:15:00,46.8,31.5,30.44,North,32767,0.0,0.0,55,0.00,,,0.01,Wunderground v.1.15,2013-11-29 13:15:00,
2013-11-29 13:20:00,46.9,32.4,30.44,North,32767,0.0,0.0,57,0.00,,,0.01,Wunderground v.1.15,2013-11-29 13:20:00,
2013-11-29 13:30:00,46.9,34.1,30.44,North,32767,0.0,0.0,61,0.00,,,0.01,Wunderground v.1.15,2013-11-29 13:30:00,
2013-11-29 13:35:00,46.9,34.6,30.43,North,32767,0.0,0.0,62,0.00,,,0.01,Wunderground v.1.15,2013-11-29 13:35:00,
2013-11-29 13:40:00,46.9,35.0,30.43,North,32767,0.0,0.0,63,0.00,,,0.01,Wunderground v.1.15,2013-11-29 13:40:00,
2013-11-29 13:45:00,46.9,35.0,30.43,North,32767,0.0,0.0,63,0.00,,,0.01,Wunderground v.1.15,2013-11-29 13:45:00,
2013-11-29 13:55:00,46.9,34.6,30.43,North,32767,0.0,0.0,62,0.00,,,0.01,Wunderground v.1.15,2013-11-29 13:55:00,
2013-11-29 14:00:00,46.9,34.6,30.43,North,32767,0.0,0.0,62,0.00,,,0.01,Wunderground v.1.15,2013-11-29 14:00:00,
2013-11-29 14:05:00,46.9,34.1,30.43,North,32767,0.0,0.0,61,0.00,,,0.01,Wunderground v.1.15,2013-11-29 14:05:00,
2013-11-29 14:15:00,46.9,34.6,30.43,North,32767,0.0,0.0,62,0.00,,,0.01,Wunderground v.1.15,2013-11-29 14:15:00,
2013-11-29 14:20:00,46.9,34.6,30.43,North,32767,0.0,0.0,62,0.00,,,0.01,Wunderground v.1.15,2013-11-29 14:20:00,
2013-11-29 14:25:00,46.9,34.6,30.43,North,32767,0.0,0.0,62,0.00,,,0.01,Wunderground v.1.15,2013-11-29 14:25:00,
2013-11-29 14:30:00,46.9,34.6,30.43,North,32767,0.0,0.0,62,0.00,,,0.01,Wunderground v.1.15,2013-11-29 14:30:00,
2013-11-29 14:40:00,46.8,35.3,30.43,North,32767,0.0,0.0,64,0.00,,,0.01,Wunderground v.1.15,2013-11-29 14:40:00,
2013-11-29 14:45:00,46.7,35.6,30.43,North,32767,0.0,0.0,65,0.00,,,0.01,Wunderground v.1.15,2013-11-29 14:45:00,
2013-11-29 14:50:00,46.5,35.4,30.42,North,32767,0.0,0.0,65,0.00,,,0.01,Wunderground v.1.15,2013-11-29 14:50:00,
2013-11-29 15:00:00,46.4,35.7,30.42,North,32767,0.0,0.0,66,0.00,,,0.01,Wunderground v.1.15,2013-11-29 15:00:00,
2013-11-29 15:05:00,46.3,35.6,30.43,North,32767,0.0,0.0,66,0.00,,,0.02,Wunderground v.1.15,2013-11-29 15:05:00,
2013-11-29 15:15:00,46.1,35.4,30.43,North,32767,0.0,0.0,66,0.00,,,0.02,Wunderground v.1.15,2013-11-29 15:15:00,
2013-11-29 15:20:00,46.0,35.3,30.42,North,32767,0.0,0.0,66,0.00,,,0.02,Wunderground v.1.15,2013-11-29 15:20:00,
2013-11-29 15:25:00,46.0,35.7,30.42,North,32767,0.0,0.0,67,0.00,,,0.02,Wunderground v.1.15,2013-11-29 15:25:00,
2013-11-29 15:35:00,45.8,35.8,30.42,North,32767,0.0,0.0,68,0.00,,,0.02,Wunderground v.1.15,2013-11-29 15:35:00,
2013-11-29 15:40:00,45.7,35.7,30.42,North,32767,0.0,0.0,68,0.00,,,0.02,Wunderground v.1.15,2013-11-29 15:40:00,
2013-11-29 15:45:00,45.6,35.6,30.42,North,32767,0.0,0.0,68,0.00,,,0.02,Wunderground v.1.15,2013-11-29 15:45:00,
2013-11-29 15:50:00,45.6,35.6,30.42,North,32767,0.0,0.0,68,0.00,,,0.02,Wunderground v.1.15,2013-11-29 15:50:00,
2013-11-29 16:00:00,45.4,35.1,30.42,North,32767,0.0,0.0,67,0.00,,,0.02,Wunderground v.1.15,2013-11-29 16:00:00,
2013-11-29 16:05:00,45.4,35.1,30.43,North,32767,0.0,0.0,67,0.00,,,0.02,Wunderground v.1.15,2013-11-29 16:05:00,
2013-11-29 16:15:00,45.2,34.1,30.43,North,32767,0.0,0.0,65,0.00,,,0.02,Wunderground v.1.15,2013-11-29 16:15:00,
2013-11-29 16:20:00,45.3,33.8,30.42,North,32767,0.0,0.0,64,0.00,,,0.02,Wunderground v.1.15,2013-11-29 16:20:00,
2013-11-29 16:25:00,45.2,33.7,30.42,North,32767,0.0,0.0,64,0.00,,,0.02,Wunderground v.1.15,2013-11-29 16:25:00,
2013-11-29 16:35:00,45.0,33.2,30.42,North,32767,0.0,0.0,63,0.00,,,0.02,Wunderground v.1.15,2013-11-29 16:35:00,
2013-11-29 16:40:00,44.9,33.1,30.42,North,32767,0.0,0.0,63,0.00,,,0.02,Wunderground v.1.15,2013-11-29 16:40:00,
2013-11-29 16:45:00,44.8,32.6,30.42,North,32767,0.0,0.0,62,0.00,,,0.02,Wunderground v.1.15,2013-11-29 16:45:00,
2013-11-29 16:50:00,44.7,32.5,30.43,North,32767,0.0,0.0,62,0.00,,,0.02,Wunderground v.1.15,2013-11-29 16:50:00,
2013-11-29 17:00:00,44.7,32.1,30.43,North,32767,0.0,0.0,61,0.00,,,0.02,Wunderground v.1.15,2013-11-29 17:00:00,
2013-11-29 17:05:00,44.6,32.0,30.43,North,32767,0.0,0.0,61,0.00,,,0.02,Wunderground v.1.15,2013-11-29 17:05:00,
2013-11-29 17:15:00,44.5,31.9,30.43,North,32767,0.0,0.0,61,0.00,,,0.02,Wunderground v.1.15,2013-11-29 17:15:00,
2013-11-29 17:20:00,44.5,32.3,30.43,North,32767,0.0,0.0,62,0.00,,,0.02,Wunderground v.1.15,2013-11-29 17:20:00,
2013-11-29 17:30:00,44.4,32.2,30.43,North,32767,0.0,0.0,62,0.00,,,0.02,Wunderground v.1.15,2013-11-29 17:30:00,
2013-11-29 17:35:00,44.3,32.1,30.43,North,32767,0.0,0.0,62,0.00,,,0.02,Wunderground v.1.15,2013-11-29 17:35:00,
2013-11-29 17:40:00,44.4,31.8,30.43,North,32767,0.0,0.0,61,0.00,,,0.02,Wunderground v.1.15,2013-11-29 17:40:00,
2013-11-29 17:45:00,44.3,31.7,30.43,North,32767,0.0,0.0,61,0.00,,,0.02,Wunderground v.1.15,2013-11-29 17:45:00,
2013-11-29 17:55:00,44.3,30.9,30.43,North,32767,0.0,0.0,59,0.00,,,0.02,Wunderground v.1.15,2013-11-29 17:55:00,
2013-11-29 18:00:00,44.4,31.0,30.43,North,32767,0.0,0.0,59,0.00,,,0.02,Wunderground v.1.15,2013-11-29 18:00:00,
2013-11-29 18:05:00,44.3,30.4,30.42,North,32767,0.0,0.0,58,0.00,,,0.02,Wunderground v.1.15,2013-11-29 18:05:00,
2013-11-29 18:15:00,44.3,30.0,30.42,North,32767,0.0,0.0,57,0.00,,,0.02,Wunderground v.1.15,2013-11-29 18:15:00,
2013-11-29 18:20:00,44.3,30.0,30.42,North,32767,0.0,0.0,57,0.00,,,0.02,Wunderground v.1.15,2013-11-29 18:20:00,
2013-11-29 18:30:00,44.3,29.6,30.42,North,32767,0.0,0.0,56,0.00,,,0.02,Wunderground v.1.15,2013-11-29 18:30:00,
2013-11-29 18:35:00,44.2,29.0,30.43,North,32767,0.0,0.0,55,0.00,,,0.02,Wunderground v.1.15,2013-11-29 18:35:00,
2013-11-29 18:45:00,44.2,29.0,30.43,North,360,0.0,0.0,55,0.00,,,0.02,Wunderground v.1.15,2013-11-29 18:45:00,
2013-11-29 18:50:00,44.1,29.4,30.43,North,360,0.0,0.0,56,0.00,,,0.02,Wunderground v.1.15,2013-11-29 18:50:00,
2013-11-29 18:55:00,44.0,29.3,30.43,North,360,0.0,0.0,56,0.00,,,0.02,Wunderground v.1.15,2013-11-29 18:55:00,
2013-11-29 19:00:00,43.9,29.2,30.43,North,360,0.0,0.0,56,0.00,,,0.02,Wunderground v.1.15,2013-11-29 19:00:00,
2013-11-29 19:05:00,43.9,29.2,30.42,North,360,0.0,0.0,56,0.00,,,0.02,Wunderground v.1.15,2013-11-29 19:05:00,
2013-11-29 19:15:00,43.8,29.1,30.42,North,360,0.0,0.0,56,0.00,,,0.02,Wunderground v.1.15,2013-11-29 19:15:00,
2013-11-29 19:25:00,43.8,30.0,30.42,North,360,0.0,0.0,58,0.00,,,0.02,Wunderground v.1.15,2013-11-29 19:25:00,
2013-11-29 19:30:00,43.8,30.0,30.42,North,360,0.0,1.0,58,0.00,,,0.02,Wunderground v.1.15,2013-11-29 19:30:00,
2013-11-29 19:35:00,43.8,30.4,30.43,North,360,0.0,1.0,59,0.00,,,0.02,Wunderground v.1.15,2013-11-29 19:35:00,
2013-11-29 19:40:00,43.9,30.9,30.43,North,360,0.0,0.0,60,0.00,,,0.02,Wunderground v.1.15,2013-11-29 19:40:00,
2013-11-29 19:50:00,43.9,31.7,30.43,North,360,0.0,0.0,62,0.00,,,0.02,Wunderground v.1.15,2013-11-29 19:50:00,
2013-11-29 19:55:00,43.9,31.7,30.43,North,360,0.0,0.0,62,0.00,,,0.02,Wunderground v.1.15,2013-11-29 19:55:00,
2013-11-29 20:00:00,43.9,32.1,30.43,North,360,0.0,0.0,63,0.00,,,0.02,Wunderground v.1.15,2013-11-29 20:00:00,
2013-11-29 20:05:00,43.8,32.0,30.43,North,360,0.0,0.0,63,0.00,,,0.02,Wunderground v.1.15,2013-11-29 20:05:00,
2013-11-29 20:15:00,43.9,32.1,30.43,North,360,0.0,0.0,63,0.00,,,0.02,Wunderground v.1.15,2013-11-29 20:15:00,
2013-11-29 20:20:00,44.1,32.3,30.42,North,360,0.0,0.0,63,0.00,,,0.02,Wunderground v.1.15,2013-11-29 20:20:00,
2013-11-29 20:25:00,44.1,32.3,30.42,North,360,0.0,0.0,63,0.00,,,0.02,Wunderground v.1.15,2013-11-29 20:25:00,
2013-11-29 20:35:00,44.3,32.1,30.42,North,360,0.0,0.0,62,0.00,,,0.02,Wunderground v.1.15,2013-11-29 20:35:00,
2013-11-29 20:40:00,44.4,32.6,30.42,North,360,0.0,0.0,63,0.00,,,0.02,Wunderground v.1.15,2013-11-29 20:40:00,
2013-11-29 20:45:00,44.4,33.0,30.42,North,360,0.0,0.0,64,0.00,,,0.02,Wunderground v.1.15,2013-11-29 20:45:00,
2013-11-29 20:50:00,44.2,32.8,30.43,North,360,0.0,0.0,64,0.00,,,0.02,Wunderground v.1.15,2013-11-29 20:50:00,
2013-11-29 21:00:00,44.1,32.7,30.43,North,360,0.0,0.0,64,0.00,,,0.02,Wunderground v.1.15,2013-11-29 21:00:00,
2013-11-29 21:05:00,44.1,32.7,30.43,North,360,0.0,11.0,64,0.00,,,0.02,Wunderground v.1.15,2013-11-29 21:05:00,
2013-11-29 21:15:00,44.1,31.9,30.43,North,360,0.0,11.0,62,0.00,,,0.02,Wunderground v.1.15,2013-11-29 21:15:00,
2013-11-29 21:20:00,44.1,31.9,30.43,North,360,0.0,11.0,62,0.00,,,0.02,Wunderground v.1.15,2013-11-29 21:20:00,
2013-11-29 21:25:00,44.0,31.4,30.43,North,360,0.0,11.0,61,0.00,,,0.02,Wunderground v.1.15,2013-11-29 21:25:00,
2013-11-29 21:30:00,44.0,31.0,30.43,North,360,0.0,11.0,60,0.00,,,0.02,Wunderground v.1.15,2013-11-29 21:30:00,
2013-11-29 21:40:00,43.8,30.4,30.43,North,360,0.0,11.0,59,0.00,,,0.02,Wunderground v.1.15,2013-11-29 21:40:00,
2013-11-29 21:45:00,43.7,29.9,30.43,North,360,0.0,11.0,58,0.00,,,0.02,Wunderground v.1.15,2013-11-29 21:45:00,
2013-11-29 21:50:00,43.7,29.5,30.43,North,360,0.0,11.0,57,0.00,,,0.02,Wunderground v.1.15,2013-11-29 21:50:00,
2013-11-29 21:55:00,43.6,29.4,30.43,North,360,0.0,11.0,57,0.00,,,0.02,Wunderground v.1.15,2013-11-29 21:55:00,
2013-11-29 22:05:00,43.6,28.9,30.43,North,360,0.0,11.0,56,0.00,,,0.02,Wunderground v.1.15,2013-11-29 22:05:00,
2013-11-29 22:15:00,43.6,28.5,30.43,North,360,0.0,0.0,55,0.00,,,0.02,Wunderground v.1.15,2013-11-29 22:15:00,
2013-11-29 22:20:00,43.5,28.4,30.43,North,360,0.0,0.0,55,0.00,,,0.02,Wunderground v.1.15,2013-11-29 22:20:00,
2013-11-29 22:25:00,43.4,28.3,30.43,North,360,0.0,0.0,55,0.00,,,0.02,Wunderground v.1.15,2013-11-29 22:25:00,
2013-11-29 22:30:00,43.4,28.3,30.43,North,360,0.0,0.0,55,0.00,,,0.02,Wunderground v.1.15,2013-11-29 22:30:00,
2013-11-29 22:35:00,43.3,28.2,30.43,North,360,0.0,0.0,55,0.00,,,0.02,Wunderground v.1.15,2013-11-29 22:35:00,
2013-11-29 22:45:00,43.3,28.6,30.43,North,360,0.0,0.0,56,0.00,,,0.02,Wunderground v.1.15,2013-11-29 22:45:00,
2013-11-29 22:50:00,43.3,28.6,30.42,North,360,0.0,0.0,56,0.00,,,0.02,Wunderground v.1.15,2013-11-29 22:50:00,
2013-11-29 22:55:00,43.3,28.6,30.42,North,360,0.0,0.0,56,0.00,,,0.02,Wunderground v.1.15,2013-11-29 22:55:00,
2013-11-29 23:00:00,43.3,27.8,30.42,North,360,0.0,0.0,54,0.00,,,0.02,Wunderground v.1.15,2013-11-29 23:00:00,
2013-11-29 23:05:00,43.3,26.8,30.42,North,360,0.0,0.0,52,0.00,,,0.02,Wunderground v.1.15,2013-11-29 23:05:00,
2013-11-29 23:15:00,43.3,26.4,30.42,North,360,0.0,0.0,51,0.00,,,0.02,Wunderground v.1.15,2013-11-29 23:15:00,
2013-11-29 23:25:00,43.2,25.8,30.43,North,360,0.0,0.0,50,0.00,,,0.02,Wunderground v.1.15,2013-11-29 23:25:00,
2013-11-29 23:30:00,43.2,26.3,30.43,North,360,0.0,0.0,51,0.00,,,0.02,Wunderground v.1.15,2013-11-29 23:30:00,
2013-11-29 23:35:00,43.2,26.3,30.43,North,360,0.0,0.0,51,0.00,,,0.02,Wunderground v.1.15,2013-11-29 23:35:00,
2013-11-29 23:40:00,43.2,26.3,30.43,North,360,0.0,0.0,51,0.00,,,0.02,Wunderground v.1.15,2013-11-29 23:40:00,
2013-11-29 23:45:00,43.2,26.3,30.43,North,360,0.0,0.0,51,0.00,,,0.02,Wunderground v.1.15,2013-11-29 23:45:00,
2013-11-29 23:55:00,43.1,26.7,30.44,North,360,0.0,0.0,52,0.00,,,0.02,Wunderground v.1.15,2013-11-29 23:55:00,